Location: Bellerive
(46.9237°N, 7.0223°E)
Time: 07:04:23
(UTC+00:00)

SPOT 1/Viking Rocket - Pass Details

Date: 09 April 2020
Orbit: 776 x 795 km, 98.5° (Epoch: 02 June)

Event Time Altitude Azimuth Distance (km) Brightness Sun altitude
Exits shadow 21:30:46 42° 247° (WSW) 1,132 4.4 -28.7°
Maximum altitude 21:31:15 43° 262° (W) 1,115 4.4 -28.7°
Drops below altitude 10° 21:36:14 10° 333° (NNW) 2,375 7.0 -29.2°
Sets 21:38:42 0° 341° (NNW) 3,310 7.9 -29.5°
